Location: Unspecified
(17.6330°N, 0.0000°E)
Time: 02:51:54
(UTC+00:00)

A-11 Canister half - Pass Details

Date: 25 June 2019
Orbit: 1514 x 1685 km, 47.2° (Epoch: 19 July)

Event Time Altitude Azimuth Distance (km) Brightness Sun altitude
Rises 10:14:31 0° 270° (W) 4,924 11.4 64.1°
Reaches altitude 10° 10:18:56 10° 286° (WNW) 3,921 11.0 65.1°
Maximum altitude 10:25:51 20° 330° (NNW) 3,137 10.9 66.7°
Drops below altitude 10° 10:32:40 10° 15° (NNE) 3,842 11.4 68.2°
Sets 10:36:59 0° 31° (NNE) 4,797 11.8 69.2°
